RH
21 21 20 20 20 20 20 21 22 23 24 26 26 26 27 28 30 33 37 41 46 50 55 58 61 64 67 70 72 74 74 75 76 76 77 77 77 76 74 74 73 72 71 70 70 69 68 66 65 63 62 60 60 58 58 56 55 53 52 50 48 46 44 43 42 42 42 42 42 42 42 43 44 45 46 46 47 47 48 50 51 52 52 50 47 42
21 21 20 20 20 20 21 22 24 25 26 27 27 28 29 31 35 39 44 50 56 61 66 69 72 74 76 77 78 79 80 81 81 82 82 82 82 82 80 79 78 76 76 76 75 74 73 72 71 70 68 68 67 66 65 64 62 61 60 58 56 54 52 50 48 47 46 45 44 44 44 45 46 47 47 48 48 48 48 49 51 52 52 51 48 44
21 20 20 20 21 22 23 24 25 26 27 28 30 32 34 38 42 48 54 60 64 69 74 77 80 82 83 84 84 84 84 85 85 85 86 86 85 85 84 82 80 78 78 77 76 76 74 74 73 72 71 71 70 70 68 67 66 65 64 62 61 60 58 57 55 53 51 50 48 48 47 47 48 49 49 50 49 49 48 49 50 51 52 52 50 46
20 20 20 21 22 23 24 25 26 28 30 32 34 38 43 48 54 59 64 68 72 74 77 80 82 84 85 86 86 86 87 87 88 87 87 87 86 86 85 84 82 81 79 78 77 76 76 74 74 73 72 72 71 70 70 68 68 66 66 64 63 62 61 60 59 58 56 54 52 51 50 50 50 50 51 52 52 51 50 50 51 51 52 52 50 48
20 21 22 23 24 24 26 26 28 31 35 39 43 49 55 60 65 68 71 73 75 76 78 79 81 82 84 84 84 85 86 87 87 87 87 87 86 86 85 84 84 83 82 80 79 78 77 76 76 74 74 72 72 70 70 69 68 67 66 65 64 63 62 61 60 60 59 58 56 55 54 52 52 52 52 53 53 53 53 52 52 52 53 52 51 50
21 22 23 24 26 26 28 30 34 39 45 50 54 59 64 68 71 73 74 74 74 76 76 77 78 79 80 80 81 82 84 85 86 86 86 86 86 85 84 84 84 84 83 83 82 80 78 77 76 76 74 74 72 71 70 69 68 68 66 65 64 63 62 62 61 60 60 60 59 58 56 55 54 54 54 54 55 55 55 54 54 54 54 53 52 51
21 23 25 27 29 31 34 37 43 50 58 62 65 67 69 71 72 73 73 73 73 74 74 75 76 76 77 78 80 81 83 84 85 85 85 85 84 84 84 84 84 84 84 83 83 82 80 79 78 77 76 75 74 73 72 71 70 68 67 66 64 63 62 61 60 60 60 60 60 60 58 58 57 56 56 56 56 56 56 56 56 56 55 54 53 52
24 25 28 32 36 40 43 48 54 63 72 75 76 74 72 71 71 71 70 70 71 72 72 72 72 73 74 76 79 81 82 83 83 83 83 82 82 82 83 83 84 84 84 83 83 82 82 81 80 78 78 77 76 75 74 73 71 70 68 66 65 63 62 60 60 58 58 58 58 59 60 59 58 58 58 57 57 57 58 58 58 57 56 55 54 54
29 32 35 41 47 54 58 61 66 74 83 84 83 79 76 72 70 69 69 69 69 69 69 69 69 70 71 74 78 80 81 81 81 81 80 80 81 81 82 83 83 84 84 84 84 83 83 82 81 80 79 78 77 76 76 74 73 72 70 68 66 64 62 60 59 58 57 57 57 58 58 59 60 60 59 58 58 58 58 58 58 58 58 56 56 57
40 43 47 53 61 68 75 76 77 81 87 86 83 79 74 72 70 68 68 67 66 66 67 68 68 69 70 73 76 78 79 79 79 79 80 80 81 82 82 83 83 83 83 84 83 83 82 82 82 81 80 79 78 77 77 76 74 73 71 69 67 65 63 61 60 58 57 56 56 56 57 58 58 60 60 60 60 59 59 60 60 60 58 58 58 60
52 56 60 66 72 76 82 82 82 83 84 82 78 73 70 69 69 69 68 66 65 65 67 68 70 70 71 71 72 74 75 76 76 77 79 81 82 83 83 83 83 83 83 82 82 82 81 81 80 80 80 79 78 77 76 76 74 73 72 70 68 66 64 62 60 58 57 56 56 56 56 56 58 58 60 60 60 60 60 60 60 60 60 59 60 62
61 64 69 74 77 79 81 81 80 79 78 77 74 70 66 68 69 70 70 67 66 66 68 69 69 69 69 69 69 70 71 72 73 74 76 78 80 82 82 82 82 82 81 81 80 80 80 80 80 80 79 78 78 76 76 75 74 72 71 69 67 65 63 61 60 58 57 56 56 55 55 55 56 58 58 60 60 60 60 60 60 60 60 60 62 65
66 70 75 77 79 80 80 81 80 78 77 76 74 72 70 70 71 72 72 69 68 68 69 68 66 65 65 66 68 69 70 71 71 72 73 74 76 78 79 78 78 78 78 79 79 79 80 80 80 80 79 78 76 76 74 74 72 70 68 66 64 62 60 59 58 57 56 56 56 56 55 55 56 56 58 59 60 61 60 60 60 60 60 60 62 66
73 76 80 80 80 80 81 81 80 79 79 77 76 76 75 74 74 74 73 71 69 69 70 69 66 63 63 65 67 70 71 72 72 72 72 72 74 75 76 76 75 75 76 76 77 78 79 80 80 78 77 76 75 74 72 70 69 67 65 63 61 60 58 58 57 56 56 56 56 56 56 56 56 56 56 58 60 61 61 60 60 60 59 59 61 64
81 84 85 83 82 82 82 80 80 80 78 78 78 78 77 76 76 76 76 73 71 70 71 69 66 63 62 63 66 69 72 73 73 72 72 71 72 74 76 74 74 74 74 76 76 76 78 78 78 76 75 74 73 71 70 68 66 64 62 61 60 58 58 57 57 56 56 57 58 58 58 57 56 56 56 58 60 61 62 61 60 60 59 59 60 63
86 87 87 85 84 82 80 81 81 81 80 79 79 79 79 78 77 77 77 74 73 72 72 70 67 63 60 61 64 68 72 74 74 73 72 70 71 73 76 76 75 74 74 74 75 76 76 76 76 74 74 72 71 70 68 66 64 62 61 60 59 58 58 58 58 58 58 58 60 60 60 58 58 57 56 58 59 61 62 62 60 60 60 60 61 63
88 87 87 86 84 82 81 82 83 83 81 80 80 80 80 79 78 78 77 76 74 73 72 72 70 67 63 61 64 68 74 76 76 74 72 70 70 73 77 78 76 75 74 74 74 75 75 75 75 74 74 72 71 70 68 66 64 62 61 60 60 59 58 58 59 60 60 61 62 62 61 60 59 58 58 58 60 61 63 62 61 60 60 60 61 63
88 87 87 86 85 84 83 84 83 83 82 82 82 81 80 80 79 78 78 76 76 74 74 73 72 71 68 67 68 72 77 80 79 76 73 70 70 73 77 78 78 76 75 74 75 76 76 76 76 76 74 74 72 70 68 66 64 62 61 60 60 60 60 60 60 61 62 63 64 64 64 62 61 60 60 60 62 63 64 64 62 61 60 60 62 64
88 88 88 87 86 85 84 84 84 84 84 84 84 83 82 81 80 79 78 77 76 76 76 76 74 73 72 72 72 76 81 84 83 80 77 74 72 74 77 78 78 77 76 76 76 77 78 78 78 77 76 74 73 71 68 66 64 62 61 60 60 60 60 61 62 63 64 65 66 66 66 65 64 63 63 64 65 66 66 65 64 62 61 61 62 64
88 88 87 87 87 86 84 83 83 84 85 86 86 86 84 82 82 80 79 78 78 78 78 78 77 76 76 75 76 77 82 85 86 84 80 77 74 74 76 79 79 78 76 76 76 78 79 79 78 78 77 76 74 72 70 68 66 64 63 62 61 61 61 62 63 64 65 66 67 68 68 68 67 67 67 68 69 69 68 67 65 64 62 62 63 65
88 87 86 88 88 88 85 82 82 84 86 86 87 86 85 84 83 82 81 81 80 80 80 80 79 79 79 78 77 78 81 85 86 85 82 78 74 74 76 79 79 78 76 75 76 79 80 79 78 78 77 76 75 74 72 70 68 67 65 64 63 62 62 63 64 65 66 68 68 69 70 71 71 71 72 72 73 73 72 70 67 65 63 63 64 66
88 86 84 86 87 87 85 83 83 84 86 87 88 87 86 86 86 85 84 84 84 84 83 83 82 82 82 80 78 78 81 84 86 86 84 78 74 72 75 78 78 76 74 74 76 78 80 79 78 78 77 77 76 76 74 72 71 69 67 66 65 64 64 64 65 66 67 68 69 70 71 73 74 75 76 76 76 76 76 73 70 67 65 64 65 68
87 85 84 85 86 86 85 84 84 84 86 88 88 88 88 88 88 88 87 88 88 87 86 86 85 84 82 80 78 78 80 82 84 85 84 79 74 71 74 76 76 74 72 73 76 78 79 79 78 78 78 78 77 76 76 74 72 70 69 68 66 66 65 65 66 67 68 69 70 71 72 74 76 78 79 79 79 78 77 76 73 70 68 67 68 70
87 86 85 85 85 86 86 85 85 85 86 87 87 87 87 87 87 88 88 88 88 87 86 86 85 83 80 79 78 78 77 79 82 83 82 78 73 70 72 74 74 73 71 73 76 78 78 78 77 78 78 78 78 77 76 75 74 72 71 70 68 68 67 66 67 68 68 70 70 71 72 74 76 80 82 82 82 81 80 78 76 73 71 70 70 72
87 86 85 85 85 86 86 86 85 85 86 85 85 84 83 84 84 84 84 84 84 84 84 84 83 82 80 79 78 77 76 78 80 81 81 77 74 70 70 73 74 74 73 74 76 77 77 76 76 76 77 78 78 78 77 76 75 74 73 72 71 70 69 68 68 68 69 70 71 72 72 74 76 79 83 85 85 84 83 81 78 76 74 74 74 75
87 86 85 84 84 84 84 84 84 84 83 82 82 81 81 82 82 83 82 82 83 84 85 85 84 82 80 79 78 78 76 78 79 80 80 78 74 71 69 72 74 76 75 75 76 76 76 75 74 76 76 78 79 79 78 77 76 76 74 74 73 72 71 70 70 70 70 71 72 73 73 74 76 78 81 84 86 87 86 85 83 80 78 77 78 78
88 87 86 84 84 84 84 84 84 83 82 81 80 80 83 84 85 86 86 86 86 86 87 86 85 82 80 80 78 77 78 78 78 78 78 78 76 72 68 72 75 77 77 76 76 76 74 74 73 74 76 77 79 80 80 79 78 76 76 75 74 74 73 72 71 70 70 71 72 73 74 74 76 77 79 82 85 87 88 88 86 84 82 81 81 81
86 86 85 85 85 86 86 86 86 85 84 82 80 80 85 85 85 85 86 87 87 87 88 87 86 84 82 80 78 77 78 78 78 78 79 80 77 73 68 72 76 78 78 76 75 74 73 72 72 73 74 76 78 80 80 80 79 78 76 76 75 74 74 73 72 71 70 71 72 73 74 76 76 77 78 81 83 85 87 88 88 87 85 84 83 82
80 80 80 82 85 86 86 86 86 86 86 85 84 84 85 86 86 87 88 88 87 87 88 86 86 85 84 82 81 80 78 77 78 79 82 82 79 74 71 74 76 78 78 77 74 72 70 69 70 72 74 76 78 79 80 80 79 79 78 77 76 76 75 74 73 72 70 71 71 72 74 76 76 78 79 80 82 84 85 87 88 88 87 85 83 82
76 76 76 81 84 85 85 86 86 86 86 86 86 86 86 86 87 87 88 88 88 88 87 86 84 84 83 83 83 81 78 76 78 82 86 85 81 77 75 76 77 77 79 78 76 72 67 66 67 70 72 74 76 78 79 79 80 80 79 78 78 77 76 76 74 73 71 71 71 72 73 74 76 78 79 81 82 83 84 86 88 88 88 86 84 82
74 74 75 80 84 85 85 85 86 86 85 84 83 82 82 83 84 85 86 87 88 88 88 86 84 82 81 82 82 80 76 74 78 83 88 86 82 79 78 79 78 78 78 79 77 73 67 64 64 66 69 71 73 75 76 78 79 80 80 80 80 80 79 78 76 74 73 72 71 72 72 74 76 78 80 81 82 83 84 86 87 88 88 86 84 82
75 74 76 80 84 86 85 85 85 85 84 81 79 78 77 78 80 82 83 84 84 85 86 85 83 81 80 80 79 78 74 74 78 84 88 87 84 80 79 79 79 78 78 78 76 74 69 64 63 65 68 69 71 72 74 76 78 79 80 80 80 80 81 80 78 76 74 73 72 72 72 74 75 77 79 81 82 84 85 86 87 88 88 88 86 84
78 78 79 82 84 86 86 86 84 83 81 78 76 74 74 75 76 78 79 79 79 80 81 81 81 80 78 78 76 74 73 74 78 84 88 88 86 83 81 81 80 78 78 77 76 73 70 66 66 66 68 69 70 71 72 74 77 79 79 79 79 80 81 81 80 78 76 74 73 72 72 73 74 76 78 80 82 84 85 86 87 87 88 88 87 86
82 81 81 83 84 86 86 84 83 80 78 75 73 71 71 72 73 74 74 74 73 73 74 76 76 78 78 77 76 74 72 73 78 84 88 87 86 85 84 83 81 79 78 78 76 73 70 67 67 68 69 69 69 70 72 75 78 79 79 79 79 79 80 80 80 78 77 76 74 73 72 72 74 74 76 79 81 84 86 87 88 88 88 88 88 87
85 84 84 84 84 84 84 82 80 77 74 71 68 67 67 68 69 70 69 68 68 68 68 70 73 76 78 78 77 75 72 74 78 84 87 87 87 87 86 84 81 80 79 78 77 74 71 69 68 69 70 68 68 69 72 76 79 80 79 79 79 79 80 80 79 78 77 76 74 74 73 72 73 74 75 77 80 83 85 87 88 88 89 88 88 88
87 86 85 84 84 82 80 79 77 76 72 69 67 66 66 66 66 66 65 65 66 66 67 68 70 73 76 76 76 76 74 76 80 85 87 87 87 87 86 84 82 80 80 79 77 76 73 71 70 70 70 68 67 68 72 76 79 80 79 79 79 79 79 79 79 78 77 76 75 74 74 73 73 74 74 76 78 81 84 86 88 89 89 89 88 88
86 85 84 83 82 80 79 78 76 76 74 72 70 68 67 67 66 66 65 66 67 68 68 68 69 70 72 75 76 77 76 78 82 86 87 87 87 87 86 84 83 82 81 79 78 77 74 73 71 70 69 68 68 69 73 76 78 78 78 78 78 78 78 79 79 78 77 76 76 75 74 74 74 74 74 75 77 80 82 85 87 88 89 89 88 88
84 84 83 82 81 80 80 78 78 77 77 76 74 74 72 72 72 71 71 72 74 75 76 73 71 70 72 74 76 77 78 79 82 85 87 87 87 87 87 86 84 83 82 80 79 78 76 74 72 70 69 68 69 71 74 76 76 76 77 76 76 76 78 79 79 78 77 76 76 76 76 76 75 74 74 74 76 78 81 84 86 88 89 89 89 88
85 85 84 84 83 83 82 82 81 80 80 80 79 78 78 78 77 77 77 78 78 78 77 76 74 74 74 76 77 79 80 81 82 84 86 86 86 87 87 86 85 84 83 82 81 79 78 76 74 72 71 70 70 72 74 76 76 76 76 75 75 76 77 78 78 77 77 77 76 76 76 76 76 76 75 75 76 77 79 82 85 87 89 89 89 88
83 85 86 85 85 86 86 86 85 84 84 84 83 83 82 82 81 81 80 80 80 79 78 78 77 77 77 78 79 82 84 84 84 85 86 86 86 86 86 86 86 85 85 84 82 80 78 77 75 74 73 73 72 73 74 74 76 76 75 74 74 74 76 76 77 77 77 76 76 76 75 75 76 76 76 76 76 76 78 80 83 86 88 89 89 89
77 80 82 83 84 84 85 85 85 85 84 84 84 83 83 83 83 82 82 81 81 81 80 80 81 81 81 81 82 84 86 86 86 86 86 86 86 86 86 86 86 86 86 85 83 81 79 78 76 75 74 74 74 74 73 73 74 74 73 72 72 73 74 76 76 77 77 76 76 75 74 74 75 76 76 76 76 76 77 79 82 85 88 88 89 89
76 78 79 80 80 81 82 82 82 82 82 82 82 82 81 81 82 82 81 81 82 82 82 83 84 84 84 84 85 86 85 85 85 86 86 86 86 86 86 86 86 86 86 86 84 82 80 79 78 76 76 76 76 74 72 72 72 72 72 72 72 73 74 76 77 78 77 76 76 74 74 74 74 74 75 76 76 76 77 79 81 83 86 88 88 88
77 78 79 79 79 79 80 80 80 81 80 80 80 80 80 81 82 82 82 82 82 83 84 85 86 86 85 85 86 86 85 85 85 85 86 86 86 86 86 86 86 86 86 86 85 84 81 80 78 77 76 78 77 76 73 71 70 71 72 73 74 74 74 76 76 77 77 76 76 75 74 74 74 74 74 76 76 76 77 79 81 83 84 87 88 88
79 79 79 80 80 80 81 81 81 81 81 81 81 81 82 82 83 83 83 83 83 84 85 86 86 86 85 85 85 85 85 85 84 84 84 84 85 85 86 86 86 86 86 86 86 85 83 81 79 78 78 79 78 76 73 71 70 70 72 74 76 76 76 76 77 77 77 77 77 76 75 74 73 73 74 74 76 77 78 79 81 83 85 87 88 88
80 80 80 80 81 82 82 82 82 82 82 82 82 82 82 83 83 83 83 84 84 84 86 86 86 85 85 85 85 85 85 85 84 84 83 83 83 84 86 86 86 86 86 86 86 86 85 83 81 80 80 80 79 76 74 73 72 72 74 76 77 78 77 77 77 78 78 78 78 78 76 74 73 72 73 74 76 76 78 79 82 84 87 88 88 88
79 79 80 80 81 81 82 82 82 82 82 82 82 82 83 83 83 83 83 83 84 84 85 85 85 85 85 84 85 85 86 85 84 84 83 83 84 85 86 86 86 86 86 86 86 86 86 85 84 83 82 80 78 76 74 74 74 74 74 76 78 79 79 78 78 78 78 78 78 78 76 74 73 72 72 74 74 76 77 79 82 85 88 88 88 88
78 78 79 79 80 80 81 81 82 82 82 82 82 82 82 82 82 82 82 82 82 82 82 83 84 84 85 85 85 86 86 85 85 84 84 85 85 86 86 86 86 86 86 86 86 86 86 85 84 84 83 81 78 76 76 75 75 76 76 78 80 80 80 79 78 78 78 77 77 77 76 74 73 72 72 72 74 75 76 78 82 85 88 88 88 88
78 79 79 80 80 80 80 81 82 82 82 82 82 81 82 82 82 81 80 80 79 79 78 79 80 81 82 84 85 86 86 86 85 85 86 86 86 86 86 86 86 86 86 86 86 86 86 85 84 84 82 81 79 78 76 76 76 78 79 81 81 80 79 78 78 78 77 77 76 76 76 74 73 72 71 72 73 74 76 78 80 84 88 88 88 87
80 80 81 81 81 81 81 81 82 82 82 82 82 81 81 81 81 81 80 79 78 77 76 77 78 80 82 83 84 84 85 85 85 85 86 86 86 86 86 86 86 86 86 86 86 86 86 85 84 83 82 81 80 79 78 78 79 80 81 81 81 80 79 78 78 78 77 76 76 76 76 74 73 72 71 71 72 73 74 76 79 82 86 87 88 87
80 81 82 82 82 82 82 82 82 83 84 83 83 82 82 82 82 82 81 81 80 80 79 79 80 81 82 82 82 83 83 84 84 85 86 86 86 86 86 86 86 86 86 86 86 86 86 85 84 82 81 81 81 81 81 81 81 81 81 81 80 80 79 78 78 77 76 76 76 76 75 74 73 72 71 70 71 72 74 76 77 80 84 86 87 87
78 80 81 82 83 83 83 83 83 84 84 84 83 83 82 82 82 82 82 82 83 83 84 84 84 84 84 84 84 83 84 84 85 86 86 86 86 86 86 86 86 86 86 86 86 86 86 85 84 82 81 81 82 83 84 84 84 83 82 80 80 79 78 78 77 77 76 76 75 74 74 74 73 72 71 71 71 72 74 76 77 79 81 85 86 87
Wind_Speed
56 56 56 55 55 56 56 55 54 53 52 51 50 49 48 47 47 46 45 44 42 41 40 39 38 37 36 35 34 33 33 33 32 31 31 30 30 29 29 30 30 30 31 31 31 32 32 33 34 34 35 36 36 37 38 38 39 40 40 41 42 42 43 43 44 44 45 46 46 46 47 47 47 47 48 48 48 49 49 49 49 49 48 48 49 49
56 56 56 56 55 55 55 54 52 51 51 50 49 47 46 45 44 43 42 40 39 37 36 35 34 34 33 32 32 31 31 31 30 30 30 29 29 28 29 29 29 29 30 30 30 31 31 32 32 33 33 34 34 35 36 36 37 38 39 39 40 41 41 42 43 43 44 44 45 45 46 46 46 47 47 48 48 48 49 49 49 49 48 48 48 49
56 57 56 56 55 54 54 53 51 50 49 48 47 45 44 42 41 40 38 36 35 33 32 31 31 31 31 30 30 30 30 30 30 30 29 29 29 29 29 29 29 30 30 30 30 31 31 31 32 32 32 32 33 34 34 35 36 37 37 38 39 40 40 41 42 42 43 43 44 45 45 46 46 46 46 47 47 48 48 49 49 49 48 48 48 48
56 56 56 55 54 53 52 51 49 48 46 45 44 42 40 39 37 36 35 33 32 31 30 30 30 30 30 30 29 29 29 30 30 30 30 30 30 30 30 30 30 30 30 31 31 31 32 32 32 32 32 32 32 33 34 34 35 36 37 37 38 39 39 40 41 41 42 43 43 44 45 45 45 46 46 46 47 47 47 48 48 48 48 48 48 48
55 54 54 53 52 51 50 49 47 45 44 42 40 38 36 35 34 33 32 32 31 31 31 30 30 31 31 31 30 30 30 31 31 31 32 32 32 32 32 31 31 31 31 31 32 32 32 32 32 33 33 33 33 33 34 34 35 36 37 37 38 39 39 40 40 41 41 42 43 43 44 45 45 45 46 46 46 46 47 47 47 47 48 48 48 48
53 52 52 51 50 49 48 46 43 41 40 38 36 35 34 33 33 32 32 32 32 32 32 32 32 32 32 32 32 32 32 32 32 32 33 33 33 33 33 32 32 32 32 32 32 32 32 33 33 33 34 34 34 34 35 35 36 37 37 38 38 39 39 40 40 41 41 42 42 43 43 44 45 45 46 46 46 46 46 47 47 47 47 47 47 47
51 50 49 48 47 46 44 42 40 37 35 34 34 34 33 33 33 33 33 34 34 34 34 34 34 34 34 33 33 33 33 33 33 33 33 33 33 33 33 33 33 32 32 32 32 32 33 33 34 34 34 35 35 35 35 36 37 37 38 39 39 39 40 40 40 41 41 42 42 43 43 44 44 45 45 46 46 46 46 46 46 46 46 46 46 46
49 48 46 45 43 42 40 38 36 34 32 32 33 34 34 35 35 35 35 35 36 36 36 36 35 35 34 33 33 33 33 33 33 33 33 33 33 33 33 32 32 32 32 32 32 32 33 33 34 34 35 35 35 36 36 36 37 38 39 39 40 40 40 41 41 41 41 42 42 42 43 43 44 44 45 45 46 46 46 46 46 45 45 45 45 46
45 44 43 41 39 38 36 35 33 31 31 32 34 35 36 36 36 36 37 37 38 37 37 37 36 35 33 33 33 33 33 33 33 32 32 32 32 31 31 31 31 31 31 31 31 32 32 33 34 34 34 35 35 36 36 37 38 38 39 40 40 41 41 41 41 41 41 42 42 42 43 43 44 44 44 45 45 45 45 45 45 45 45 45 45 46
41 40 38 37 34 33 33 32 32 31 32 33 35 36 37 37 38 38 39 38 38 37 36 36 35 34 33 32 32 32 31 31 30 30 29 29 29 29 29 29 29 29 29 30 30 31 32 32 33 33 34 34 35 36 36 37 38 39 40 41 41 42 42 42 42 42 42 42 42 42 42 43 43 43 44 44 44 45 45 44 44 44 44 44 45 46
36 35 34 33 31 31 31 32 32 33 34 35 37 37 37 38 39 40 40 38 36 34 34 33 33 33 32 31 30 30 30 29 28 27 26 26 26 26 26 27 28 28 29 29 30 31 31 32 32 33 33 34 35 36 37 37 39 39 40 41 42 42 42 43 43 42 42 42 42 42 42 42 43 43 43 43 44 44 44 44 44 44 44 44 45 46
32 31 31 31 31 31 32 33 34 35 36 38 39 39 39 39 39 39 39 37 34 33 32 32 32 31 31 31 30 30 29 29 28 27 25 25 25 25 25 26 27 28 28 29 30 30 30 31 31 32 33 34 34 35 36 37 38 39 40 41 41 42 42 42 42 42 42 42 41 41 41 42 42 42 43 43 43 43 43 43 43 43 43 44 45 46
30 30 31 31 32 33 34 36 37 38 39 40 41 41 40 38 37 37 37 36 34 33 33 32 32 31 31 31 31 31 30 30 29 28 27 26 26 26 26 27 27 27 28 28 29 29 29 30 30 31 32 33 33 34 35 36 37 38 39 39 40 41 41 41 41 41 41 41 41 41 41 41 41 41 42 42 42 42 42 42 42 42 43 44 45 46
31 32 33 34 35 36 37 39 40 41 41 41 41 40 39 37 36 36 36 35 34 34 34 34 33 32 32 31 31 31 31 31 30 30 29 28 27 27 27 28 28 28 28 28 28 28 28 28 29 30 30 31 32 32 33 34 35 36 37 37 38 38 39 39 40 40 40 39 39 39 39 40 40 40 40 41 41 41 41 41 41 42 42 43 45 47
34 35 36 36 37 38 39 41 42 42 41 40 40 38 37 36 35 35 35 35 34 34 34 34 34 33 33 32 31 31 31 31 31 31 30 29 28 28 28 28 28 28 28 27 27 26 26 26 27 27 28 28 29 30 31 32 33 34 34 35 36 36 37 37 37 37 38 37 37 38 38 38 38 38 39 39 39 39 39 40 40 41 42 43 45 47
36 37 37 37 38 40 41 41 41 41 40 39 38 36 36 35 34 34 34 34 34 34 34 35 35 34 33 32 31 31 31 31 31 31 31 29 28 27 28 28 28 28 27 26 25 24 24 24 25 25 25 26 27 28 29 30 31 32 32 33 34 34 35 35 35 36 36 36 36 36 36 36 36 36 37 37 37 37 38 38 39 40 41 43 45 47
37 36 36 38 39 40 40 40 39 39 38 37 36 35 35 34 34 34 34 34 34 34 34 34 35 35 35 33 32 32 32 32 32 32 31 30 28 27 27 27 27 26 25 24 23 22 22 22 22 23 24 25 26 27 28 29 29 30 31 32 32 33 33 34 34 34 34 34 34 34 34 34 34 34 35 35 35 36 36 37 38 39 41 43 45 47
37 36 37 37 38 38 38 37 37 36 36 35 35 35 34 34 33 33 33 33 33 33 33 34 34 35 35 34 33 32 32 33 33 33 32 30 28 27 26 26 26 25 24 22 21 20 20 21 21 22 23 25 26 26 27 28 29 29 30 31 31 31 32 32 32 32 32 32 32 32 32 32 32 32 32 33 33 33 34 35 36 38 40 43 45 48
35 35 36 36 36 36 36 36 35 35 35 34 34 34 33 33 32 32 32 32 32 32 33 33 34 34 34 33 32 31 32 32 33 33 32 31 29 27 25 25 25 24 23 21 20 20 20 21 22 23 24 25 26 27 28 28 29 29 29 30 30 30 30 30 30 30 30 30 30 31 31 31 31 30 30 31 31 32 33 34 35 37 40 42 45 48
34 34 34 35 35 35 35 35 34 33 33 33 32 32 32 31 31 31 31 31 31 32 32 33 33 33 33 33 32 31 31 31 32 32 32 31 29 27 25 24 24 23 22 21 20 20 21 21 22 23 24 25 26 27 28 29 29 29 30 30 29 29 29 29 29 29 29 29 29 29 29 29 29 29 29 29 29 30 31 33 35 37 39 42 45 48
33 33 33 33 33 34 34 33 31 31 30 30 30 30 31 30 30 31 31 31 31 32 32 32 32 32 32 32 31 30 30 30 31 31 32 31 29 27 25 24 24 24 23 22 21 21 21 22 23 24 24 25 27 28 29 29 30 30 30 29 29 29 28 28 28 27 28 28 28 28 28 28 28 28 28 28 28 29 30 32 34 36 38 41 44 47
32 31 31 30 30 30 30 29 28 28 28 29 29 29 30 30 30 30 30 31 31 31 31 31 31 31 31 31 30 30 30 30 30 31 31 32 30 28 26 25 26 25 24 22 21 21 22 23 23 24 24 25 26 27 28 29 29 30 29 29 28 28 27 27 26 26 26 27 27 27 27 28 28 27 27 26 27 28 30 31 33 35 37 40 43 46
29 29 28 28 28 28 28 27 27 27 27 27 28 28 29 29 29 30 30 30 31 31 31 31 31 31 31 31 30 30 29 30 30 31 31 32 31 29 27 27 27 26 25 23 22 22 22 23 23 23 23 24 25 26 27 28 29 29 29 28 28 27 27 26 26 26 25 26 26 26 27 27 27 27 26 26 26 27 28 31 33 35 37 39 42 45
27 27 27 26 26 26 27 27 27 27 27 27 27 28 28 28 29 29 30 30 30 30 30 31 31 32 32 31 31 30 30 30 30 31 32 32 31 30 28 28 28 27 26 24 22 22 22 22 22 22 22 22 23 24 26 27 27 28 28 27 27 26 26 25 25 25 25 25 25 25 26 26 26 26 26 25 25 26 27 30 32 35 37 39 42 44
27 27 27 27 26 26 27 27 28 28 28 28 28 28 28 29 29 30 30 31 31 31 31 32 34 35 34 34 33 33 31 31 31 32 32 32 32 30 28 27 27 27 26 24 23 23 23 22 22 21 21 21 22 23 24 25 26 26 27 26 26 26 26 25 25 24 24 24 24 24 25 25 26 26 26 25 25 26 26 28 31 34 37 39 41 44
29 30 29 29 28 28 28 29 30 30 30 30 30 30 30 30 31 32 33 33 33 33 34 35 36 37 36 36 35 35 33 33 33 33 33 33 32 30 27 26 26 27 26 25 24 24 23 23 22 21 20 20 21 22 23 24 25 25 26 26 26 26 25 25 25 24 24 23 23 23 24 24 25 26 26 26 26 26 26 27 30 32 36 39 41 43
31 32 32 31 31 30 31 31 32 33 32 32 32 31 31 31 32 32 33 34 35 35 35 36 37 37 37 36 36 36 35 34 34 34 34 34 33 31 28 26 26 26 26 26 25 25 24 23 22 21 21 21 21 22 23 23 24 24 25 25 25 25 25 25 25 24 24 23 23 23 23 23 24 25 26 26 26 26 27 27 29 31 34 37 40 43
31 32 32 32 32 33 34 35 36 35 34 33 32 32 31 31 31 32 34 35 36 37 37 37 37 37 37 37 37 36 36 36 35 35 35 35 34 32 29 27 27 27 27 27 27 26 25 24 23 22 22 21 22 22 22 23 23 24 24 24 25 25 25 25 25 24 24 23 22 22 22 22 23 24 25 26 26 27 27 27 28 30 32 36 39 41
32 32 32 32 33 35 38 39 39 37 34 33 32 32 33 33 33 34 36 37 37 38 38 38 38 38 38 38 38 38 37 37 36 36 36 36 35 33 30 29 29 29 29 29 29 28 27 25 24 23 22 22 22 22 22 22 22 23 23 24 24 25 25 25 25 25 24 23 22 22 21 21 22 23 24 25 25 26 26 27 28 29 31 34 36 39
33 33 33 33 35 36 37 38 37 36 34 33 33 34 34 35 36 36 36 37 38 38 39 39 38 38 38 38 39 39 38 37 36 36 36 36 36 35 33 31 31 31 31 31 31 30 28 26 24 23 22 22 22 21 21 21 21 22 23 24 24 25 25 25 25 25 24 23 22 21 21 21 21 21 22 23 24 25 25 26 27 28 30 32 34 36
34 34 34 34 35 35 34 33 33 33 34 34 34 35 36 37 37 37 37 38 38 39 39 40 40 39 39 39 40 40 39 37 36 36 36 37 36 35 34 33 33 32 32 32 33 32 31 28 25 23 22 22 21 21 20 20 21 21 22 23 23 24 25 25 25 25 24 23 22 21 21 20 20 20 21 22 22 23 24 25 26 27 28 30 32 34
35 35 36 36 35 34 33 32 33 35 36 37 37 37 37 38 38 38 38 39 39 39 40 40 41 40 40 40 41 40 39 38 36 36 36 37 36 36 35 34 34 34 34 34 34 33 33 30 27 24 23 22 21 20 20 20 20 21 21 22 22 23 24 25 25 25 24 23 22 21 20 20 19 19 20 20 21 22 23 23 25 26 27 29 30 33
36 37 37 37 37 36 36 36 38 39 40 40 39 39 39 39 39 39 40 40 40 40 40 41 41 41 41 41 41 41 40 38 36 36 36 36 36 35 35 35 35 35 35 35 34 34 33 31 29 27 25 23 22 21 20 20 20 20 21 21 22 22 23 24 24 24 24 23 22 21 20 20 19 19 19 19 20 21 21 22 23 25 26 27 29 31
36 37 37 38 38 38 39 40 42 42 42 42 41 40 40 40 40 41 41 41 42 42 42 42 43 43 43 43 42 42 40 38 36 35 35 35 35 35 35 35 35 35 35 35 35 34 33 32 30 28 26 24 22 21 20 19 19 20 20 21 21 21 22 23 23 23 23 23 22 21 20 19 19 18 18 18 19 19 20 21 22 23 25 26 28 29
36 37 37 38 38 39 40 41 43 43 43 43 42 42 42 42 42 42 43 43 43 44 44 45 45 45 44 44 43 42 40 37 35 34 33 33 34 34 34 35 35 35 35 35 35 35 34 32 30 29 27 25 22 20 19 18 19 19 19 20 20 21 21 22 22 22 22 22 21 21 20 19 18 18 17 17 18 18 19 20 21 22 23 25 27 28
37 37 38 38 39 40 41 42 43 44 45 45 45 44 44 44 44 44 45 45 46 46 47 47 47 47 46 45 44 42 40 36 34 32 31 32 32 33 33 34 35 35 35 35 35 34 33 32 30 29 27 25 22 19 17 17 17 18 18 18 19 19 20 21 21 22 21 21 21 20 19 19 18 17 17 17 17 18 18 19 19 21 22 24 25 27
38 38 39 39 40 41 42 43 44 45 46 47 47 47 47 47 47 47 47 47 48 49 50 50 50 49 48 47 45 43 40 36 33 31 30 30 31 32 32 33 34 35 34 34 34 33 33 32 30 28 26 24 21 18 17 16 16 16 17 17 18 18 18 19 20 20 21 20 20 20 19 18 18 17 17 16 17 17 17 18 18 19 20 22 24 26
39 39 40 40 41 42 43 44 45 46 47 48 49 49 49 49 49 50 50 50 51 51 52 53 53 52 51 49 47 45 42 37 33 30 29 29 30 31 32 33 33 34 34 33 33 32 32 31 30 28 25 22 20 18 16 15 15 15 15 15 16 16 17 17 18 19 20 20 19 19 18 18 17 17 16 16 16 16 17 17 17 18 19 20 22 24
41 41 42 42 43 44 45 46 47 48 49 49 50 51 51 51 52 52 53 53 53 54 54 55 55 54 52 50 48 45 42 38 34 30 28 27 28 30 32 33 33 33 32 32 32 32 31 30 29 27 25 22 19 17 15 15 14 14 14 14 14 14 15 16 17 18 19 19 19 19 18 18 17 16 16 16 16 16 16 16 17 17 18 19 20 22
43 43 44 45 45 46 47 48 49 49 50 51 52 52 53 53 54 54 55 55 55 55 55 54 54 52 51 49 46 43 40 36 33 29 26 25 27 30 33 33 32 31 31 31 31 31 31 30 29 27 25 22 19 17 16 15 14 14 14 14 13 13 14 15 16 17 18 18 18 18 18 17 17 16 16 16 15 15 16 16 16 16 17 18 19 22
46 46 47 47 48 49 49 50 51 51 52 53 53 54 54 55 55 55 55 55 54 53 52 51 49 47 46 44 43 40 37 34 31 28 25 24 27 30 33 33 31 30 30 30 31 31 30 29 28 26 24 22 20 18 17 16 15 15 15 14 14 13 14 14 15 16 17 18 18 18 18 17 17 16 16 15 15 15 15 15 16 16 16 17 19 22
49 49 50 50 51 51 51 52 52 53 53 54 54 54 54 54 54 53 52 51 49 47 45 42 40 39 38 38 37 36 34 32 30 28 26 25 27 30 32 31 30 30 29 30 30 30 30 29 28 26 24 23 21 20 18 17 17 16 16 15 15 14 14 14 14 15 16 17 18 19 18 18 17 16 16 15 15 15 15 15 15 15 16 17 18 21
51 52 52 52 52 52 52 52 52 52 52 52 52 51 50 49 48 46 45 43 41 39 36 34 32 32 32 32 32 32 32 31 30 29 27 26 27 29 31 31 30 29 28 29 29 29 29 29 28 26 25 23 22 21 20 19 18 18 17 17 16 16 15 15 15 15 16 17 18 19 19 18 18 17 16 15 15 15 15 15 15 15 15 16 18 20
52 52 52 52 51 50 49 48 48 48 47 46 46 45 43 42 40 39 37 35 33 31 29 28 27 27 28 29 29 30 31 31 31 30 29 29 29 30 30 30 29 28 28 28 28 28 29 28 28 26 25 24 23 23 21 20 19 19 18 18 18 17 17 16 16 16 16 17 18 18 19 19 18 17 16 16 15 15 15 15 15 15 15 16 17 19
51 50 48 47 45 44 43 43 42 42 41 40 39 38 37 35 34 32 31 30 28 27 25 25 25 26 26 27 27 27 28 30 31 31 31 31 31 30 29 28 27 27 26 27 27 27 28 28 27 26 25 25 24 24 23 21 21 20 20 19 19 18 18 18 17 17 17 17 17 18 19 20 19 18 17 16 16 16 15 15 15 15 15 16 17 19
45 43 42 40 39 38 37 37 36 36 35 35 34 33 31 30 29 28 27 26 25 24 24 24 24 25 26 26 26 25 26 27 28 29 30 30 29 29 28 27 26 25 25 25 26 27 27 27 26 26 25 25 25 24 23 22 22 21 21 20 20 19 19 19 18 18 18 17 17 18 19 20 20 19 18 17 16 16 16 16 16 16 16 17 18 19
38 37 36 35 34 33 32 32 31 31 30 30 29 28 27 27 26 26 25 24 24 23 23 24 24 25 25 25 25 24 24 24 25 26 27 27 27 27 26 25 24 24 24 24 25 25 26 26 25 25 25 25 25 25 24 23 23 22 21 21 20 20 19 19 19 19 18 18 18 18 19 20 20 19 19 18 17 17 17 17 17 17 18 19 20 21
32 31 31 30 30 29 28 28 27 27 26 26 25 25 25 24 24 24 24 23 23 23 23 24 24 24 24 24 24 24 23 23 23 23 24 24 24 24 24 23 22 22 22 23 23 24 25 25 25 25 25 25 25 24 24 24 23 22 22 21 21 21 20 19 19 19 19 19 19 19 19 20 20 20 19 19 18 18 18 18 18 19 19 21 22 23
28 27 27 27 26 26 25 25 24 24 23 23 23 22 22 22 23 23 23 23 23 23 23 24 24 24 24 24 24 23 23 23 22 22 21 21 21 21 21 20 20 20 20 21 22 22 23 24 24 24 24 24 24 24 24 24 23 22 22 22 21 21 20 20 19 19 19 19 19 19 20 20 20 20 20 19 19 19 19 19 19 20 21 23 25 26
25 25 24 24 24 23 23 22 22 22 21 21 21 21 21 21 22 22 23 23 24 24 24 24 24 24 25 24 24 23 23 22 21 20 19 19 19 19 19 18 18 17 18 19 20 20 21 22 23 23 24 23 24 24 23 23 23 22 22 22 22 21 21 20 19 19 19 19 19 19 20 20 20 20 20 20 19 19 19 20 20 21 22 24 26 28
23 23 22 22 22 21 21 21 20 20 20 20 20 20 20 20 21 22 23 24 25 25 25 26 25 25 25 25 24 23 22 21 19 18 17 17 16 16 16 16 16 16 16 17 18 19 20 21 21 21 22 22 23 23 22 22 23 23 23 22 22 21 21 20 20 20 19 19 19 19 19 19 20 20 20 19 19 19 19 20 21 22 23 24 26 29
Wind_Direction
298 297 297 296 295 295 294 295 295 295 295 295 295 295 295 295 295 296 296 296 296 296 296 296 295 295 294 294 293 293 292 292 291 290 288 287 285 283 282 281 280 279 279 278 278 277 276 276 275 275 275 275 275 274 274 273 273 272 271 270 269 267 266 265 263 262 261 260 259 258 257 257 256 256 255 254 252 251 250 249 248 247 246 245 243 241
296 296 295 295 294 294 294 294 295 295 295 295 295 295 295 295 295 295 295 295 295 296 296 295 295 295 294 294 294 294 293 292 291 290 289 287 286 284 283 281 281 280 280 279 279 278 278 277 277 277 277 277 276 276 276 275 275 274 273 272 271 270 268 267 265 263 262 261 259 258 257 256 255 255 254 253 252 251 250 249 248 246 245 244 243 241
295 295 294 294 294 293 293 294 294 294 294 294 295 295 295 294 294 294 295 295 294 295 295 295 295 295 294 293 293 293 292 291 290 289 288 286 285 283 282 281 280 280 280 279 279 279 278 278 278 278 278 278 277 277 277 276 276 275 274 274 273 271 270 268 267 265 263 261 260 258 257 255 254 253 253 252 252 251 250 249 248 246 245 243 242 240
294 294 294 293 293 293 293 293 294 294 294 294 294 294 294 294 294 294 294 294 295 295 295 295 295 294 292 291 290 289 288 288 287 286 285 284 283 282 281 281 281 280 280 280 279 279 279 279 279 279 279 279 278 278 277 277 277 276 275 274 274 273 271 270 268 266 264 263 261 259 257 255 254 252 251 250 250 250 250 249 248 247 245 244 242 240
293 293 293 293 292 292 292 293 294 294 294 294 294 294 294 294 294 294 294 295 295 296 296 295 294 293 291 289 288 287 286 286 285 285 285 284 284 284 283 283 283 282 282 281 280 280 280 280 280 280 280 280 279 279 278 278 277 276 276 275 274 273 272 271 270 268 266 264 262 260 258 256 254 252 251 249 249 248 248 248 247 246 245 244 242 240
292 292 292 292 292 292 292 293 293 294 294 294 294 294 294 295 295 295 295 296 296 297 297 296 295 294 292 290 289 288 287 287 287 287 286 286 286 286 285 285 285 284 283 282 281 281 281 281 281 281 280 280 280 279 279 278 277 277 276 275 274 273 272 271 270 269 267 266 264 261 259 257 255 253 251 249 248 247 246 246 246 245 245 244 243 240
291 291 291 291 292 292 293 293 294 295 296 297 297 297 297 296 297 297 297 298 298 298 298 297 296 294 293 291 290 290 289 288 288 288 287 287 286 286 286 286 285 284 284 283 282 281 281 281 281 281 281 281 280 280 279 278 277 277 276 275 274 273 272 271 270 269 268 266 265 263 261 258 256 254 252 250 248 246 245 245 244 244 243 243 241 239
291 291 291 291 292 293 293 294 295 298 301 303 302 300 299 298 298 299 299 299 299 299 298 297 296 294 293 292 291 290 290 289 288 287 286 286 285 285 285 285 284 284 283 282 282 281 281 281 281 281 281 281 281 280 280 279 278 277 276 275 274 273 272 271 270 269 268 267 265 264 262 260 258 256 253 251 249 247 245 244 243 242 241 240 239 237
291 291 292 292 294 295 296 296 298 301 304 304 302 301 300 300 300 301 301 300 300 300 299 298 296 295 294 293 292 291 290 289 288 287 286 285 285 284 283 283 283 282 282 281 281 281 281 281 281 281 282 281 281 280 279 278 277 276 276 275 274 273 273 272 271 270 268 267 266 265 263 261 260 257 255 253 250 248 246 244 242 241 239 238 236 234
291 292 293 293 295 297 298 299 300 301 301 300 299 299 299 300 301 302 301 300 300 300 299 298 298 297 295 294 294 293 292 291 290 289 288 287 285 284 283 282 281 281 280 280 280 280 280 281 281 281 281 281 280 279 278 277 276 276 275 275 274 274 273 273 272 271 270 268 267 266 264 262 261 259 257 255 252 250 247 245 242 240 238 236 234 232
290 291 292 293 295 297 298 299 300 300 299 298 298 298 300 302 302 302 301 300 300 300 299 299 298 298 298 297 297 297 297 296 294 292 290 289 287 286 285 284 283 282 282 282 281 282 282 282 282 282 281 280 279 278 277 276 276 275 275 275 274 274 274 274 273 272 271 270 268 267 265 263 262 260 258 256 254 251 249 246 243 240 237 234 232 231
290 291 292 294 296 297 298 299 299 299 299 299 300 301 302 304 304 303 302 301 301 301 300 300 299 299 300 301 301 302 301 301 299 297 294 292 290 288 287 286 286 286 286 286 285 285 285 285 284 283 281 280 279 278 277 277 276 276 276 276 276 276 275 275 274 273 272 271 269 267 266 264 263 261 259 257 255 252 250 247 243 240 236 233 231 229
293 294 296 297 298 299 300 300 300 300 300 301 302 303 304 305 304 303 302 301 301 301 301 300 300 300 301 302 304 304 304 304 302 300 297 295 294 293 292 291 290 290 291 290 290 289 289 287 285 283 282 281 280 280 279 279 278 278 278 278 278 277 277 276 275 274 273 271 270 268 267 265 263 262 260 258 256 253 250 247 243 240 236 232 229 228
298 298 299 300 300 301 301 300 299 299 300 301 302 303 304 303 302 302 301 301 301 301 301 301 301 301 301 302 304 305 305 304 302 301 299 298 297 297 297 296 296 296 296 295 294 293 291 288 286 284 283 282 282 282 281 281 281 281 281 280 280 279 278 277 276 275 274 272 271 269 267 266 264 262 261 259 256 254 251 247 243 239 236 232 229 226
298 298 298 299 299 299 298 297 297 298 300 301 301 302 301 301 300 300 300 300 301 301 301 301 301 301 301 302 304 305 305 304 302 301 299 299 300 301 302 301 301 300 300 299 297 295 292 289 286 285 284 284 284 284 284 284 283 283 283 282 281 280 279 278 277 276 275 273 271 270 268 267 265 263 261 259 257 254 251 247 243 239 235 231 228 225
293 293 294 294 294 293 294 295 296 298 299 299 300 300 300 299 299 299 299 299 300 301 301 301 301 302 302 303 305 306 306 305 303 301 300 300 302 304 305 305 304 303 303 302 300 298 294 291 289 288 287 287 287 286 286 286 286 286 285 284 283 282 281 279 278 277 276 274 273 271 270 268 266 265 262 260 257 254 251 247 242 238 234 230 227 224
288 288 288 287 287 289 291 294 295 297 298 298 298 298 299 298 298 298 298 299 300 300 301 302 303 303 304 305 306 308 308 306 304 303 302 302 304 306 308 307 306 306 305 304 303 300 297 294 292 291 290 290 290 290 290 290 290 289 288 287 286 284 283 281 280 278 277 276 274 273 271 270 268 266 263 261 257 254 250 246 242 237 233 229 226 223
286 285 285 285 287 290 293 294 296 297 298 298 298 298 298 297 297 298 298 299 300 300 301 302 303 303 305 307 308 309 308 307 306 304 304 304 306 308 309 308 307 306 306 305 304 302 299 296 294 294 293 293 293 293 294 294 294 293 292 291 290 288 286 284 282 280 279 277 276 274 273 271 269 267 264 261 257 253 249 245 241 237 233 229 226 223
285 286 287 289 292 294 295 296 297 298 298 298 298 298 297 297 298 298 298 299 300 300 301 301 302 303 305 306 307 308 307 307 306 305 305 305 307 308 308 307 306 305 305 305 305 303 300 297 295 295 295 295 296 296 297 297 297 297 296 295 294 292 290 287 285 283 280 278 276 275 273 272 270 268 264 261 256 252 248 243 239 236 233 229 226 223
286 288 290 293 295 296 296 297 298 299 299 299 298 298 297 298 298 298 299 299 299 300 300 300 301 303 304 305 306 307 307 306 305 304 304 304 305 307 307 306 305 304 304 304 304 302 299 296 295 295 296 297 298 299 299 299 299 299 299 298 297 296 294 291 288 285 282 279 277 275 273 272 270 268 264 260 255 250 246 241 238 235 232 229 227 224
287 289 292 295 296 297 298 299 301 301 300 299 299 298 298 299 299 299 299 299 299 299 299 299 301 302 303 304 306 307 306 305 304 303 303 303 303 304 305 304 302 301 302 303 303 301 297 295 295 295 297 298 299 300 300 300 300 301 301 301 300 299 297 295 292 288 285 281 278 275 273 271 269 267 264 260 254 249 244 240 237 234 232 229 227 224
290 292 294 296 296 298 299 302 303 302 302 301 300 300 300 300 300 299 299 298 298 298 298 299 300 301 302 303 305 306 305 304 303 303 302 302 302 303 304 302 301 300 300 302 302 299 296 294 294 296 298 300 300 301 300 300 301 301 301 302 302 301 300 298 295 291 287 283 279 275 272 270 268 267 264 260 254 248 243 239 236 233 231 229 227 225
292 294 296 297 298 299 300 302 302 302 302 301 300 301 301 301 300 300 299 298 297 297 297 298 299 300 300 301 302 303 303 303 302 302 301 300 301 303 303 302 300 299 300 301 300 297 294 293 294 296 299 300 301 300 300 300 301 301 302 303 303 303 302 300 298 294 291 286 282 277 273 270 267 266 263 260 255 249 244 239 235 232 230 229 227 225
294 295 296 297 297 298 299 300 300 300 300 300 300 300 300 300 300 299 299 298 298 298 298 299 299 299 299 299 300 300 300 300 300 300 299 299 301 302 303 302 301 300 300 301 299 296 293 292 294 296 298 300 300 300 300 300 301 302 303 304 304 304 304 303 301 298 294 290 285 280 275 270 267 265 263 260 257 252 246 241 236 232 230 228 226 225
294 294 294 295 295 296 296 297 298 298 298 298 298 299 299 300 300 301 301 301 301 301 302 301 300 298 298 297 297 297 297 298 298 298 298 299 300 301 302 302 301 300 300 299 297 294 292 292 292 295 297 298 299 299 300 301 302 303 304 305 305 305 305 304 303 301 298 294 289 283 277 272 267 264 262 260 258 255 251 245 239 234 230 228 226 225
292 292 292 292 292 293 294 295 296 297 297 298 298 299 300 302 303 303 303 303 303 302 301 299 297 295 294 294 293 294 295 296 296 296 296 297 298 298 300 301 301 300 299 298 295 293 291 291 291 293 294 296 297 298 300 301 302 303 305 305 306 306 306 305 304 303 300 297 293 287 281 274 268 263 260 259 258 257 254 250 243 237 232 229 226 225
285 286 287 288 289 291 292 294 294 295 296 298 299 300 300 301 301 299 297 297 297 296 295 293 292 291 291 291 291 291 292 292 292 292 293 294 294 295 297 299 300 299 298 296 295 293 291 291 291 291 292 293 295 297 298 300 302 303 304 305 306 306 305 305 304 303 302 299 296 291 285 278 271 265 260 258 257 256 255 253 248 242 236 231 228 226
279 280 281 283 285 287 289 290 290 291 292 295 297 297 296 294 292 288 286 288 290 291 291 291 291 291 292 291 291 291 290 289 289 289 290 291 291 292 294 296 297 297 296 295 294 293 291 291 291 291 291 291 292 294 296 298 300 302 303 304 305 305 305 304 304 304 303 301 298 294 288 282 274 268 262 258 256 255 255 254 251 246 240 235 231 228
279 280 280 281 283 285 286 285 283 283 285 289 292 293 292 290 287 285 285 286 288 289 290 291 292 293 293 293 293 292 290 289 288 288 289 289 289 290 292 293 294 294 295 295 294 292 291 291 291 291 290 289 289 291 292 295 298 300 302 303 304 304 304 304 304 303 303 302 300 296 291 285 278 271 265 261 258 256 255 254 252 248 244 239 234 231
282 281 281 283 285 287 285 282 278 277 280 283 287 289 289 289 287 286 286 287 288 289 290 292 293 293 294 294 293 292 291 290 290 289 287 287 287 288 290 291 291 292 293 293 293 292 291 292 292 291 290 288 287 288 289 292 295 297 299 301 302 303 303 303 303 303 303 302 301 298 294 288 282 275 268 263 260 257 256 254 252 249 245 241 237 233
283 282 282 285 289 291 289 283 278 277 279 282 284 286 287 287 286 286 286 287 287 288 290 291 292 293 293 293 292 292 291 291 290 288 286 285 285 286 288 288 289 289 290 291 291 292 292 293 294 293 292 289 287 286 287 289 291 294 296 298 299 300 301 301 301 302 302 302 301 299 296 291 284 277 271 265 261 258 257 255 253 250 247 242 238 234
285 284 284 287 290 293 292 288 285 283 283 284 285 285 285 285 284 284 284 285 285 287 288 289 290 291 292 292 291 291 291 291 290 287 285 283 283 284 285 285 286 286 287 288 289 290 292 294 296 296 295 291 288 286 285 286 288 290 292 294 296 297 297 298 298 299 300 300 300 299 297 293 287 280 273 267 262 259 256 255 253 251 248 244 239 235
287 286 286 287 289 290 290 289 288 287 286 285 285 285 284 284 283 283 283 283 284 285 286 287 289 290 290 291 291 290 291 290 288 285 283 281 280 281 281 282 283 283 284 285 287 288 291 293 296 297 296 293 290 288 286 286 286 288 289 291 292 293 294 294 295 296 296 297 297 297 296 293 288 282 275 269 264 260 256 254 253 251 249 245 241 237
288 288 288 288 288 288 288 288 287 286 285 285 285 284 284 283 283 282 282 283 283 284 285 286 288 289 290 290 290 289 289 288 286 283 280 278 278 278 279 279 280 281 282 283 285 287 289 292 294 295 295 294 291 289 287 287 286 286 287 288 290 290 291 291 291 292 293 293 294 294 293 292 289 284 278 271 266 261 257 254 252 250 248 246 243 239
288 288 287 287 287 286 285 285 285 285 285 285 285 284 284 283 283 283 282 283 284 285 286 287 288 288 289 288 288 288 287 286 284 281 278 275 275 275 276 276 277 278 280 281 283 285 287 290 292 293 294 293 291 290 288 287 285 285 285 286 287 288 288 288 288 289 289 290 290 291 290 290 288 285 279 274 268 263 259 256 253 250 248 246 244 241
287 286 286 285 285 284 284 284 284 285 286 286 285 285 285 284 284 283 283 284 285 285 286 286 287 287 287 287 286 285 284 283 280 277 275 273 273 273 273 274 274 276 277 279 280 282 285 287 289 290 291 292 292 291 289 286 284 283 283 284 285 285 286 286 286 286 287 288 288 288 288 288 286 284 280 275 270 265 261 258 255 252 249 246 244 242
285 285 284 284 284 284 284 284 285 285 286 286 285 285 285 284 284 284 284 284 285 285 286 285 285 285 285 285 284 283 281 278 275 272 271 270 270 271 271 271 272 274 275 277 279 281 282 284 286 287 289 290 292 292 290 286 283 282 282 282 282 282 283 283 284 285 286 286 287 287 286 285 284 282 279 275 271 266 262 259 256 254 251 248 245 243
286 285 285 284 284 284 283 283 283 283 283 283 283 283 283 283 283 283 283 283 284 284 284 284 284 284 284 283 282 280 278 274 270 267 267 268 269 270 270 270 271 272 274 275 277 278 280 281 282 284 286 288 289 290 289 286 284 282 281 281 280 280 281 281 282 283 285 285 285 285 284 283 281 279 277 274 270 266 262 259 257 255 253 250 246 243
289 287 286 285 284 283 282 281 280 280 280 279 280 280 281 281 281 281 281 281 281 281 281 281 282 282 282 281 280 278 275 270 266 263 263 267 270 272 271 270 271 271 273 274 275 276 277 278 279 281 283 285 286 286 286 285 284 283 282 281 280 280 280 281 281 283 284 284 284 284 283 281 279 277 275 272 268 265 262 258 256 255 253 250 247 242
290 289 287 286 285 283 282 281 281 280 279 279 279 279 279 279 280 280 280 280 280 279 280 280 280 280 280 279 277 275 271 266 262 259 258 261 266 269 270 270 270 271 272 273 274 274 274 275 276 278 280 282 283 284 284 283 283 283 282 281 280 280 280 281 282 283 283 284 283 283 281 280 278 275 272 270 267 264 260 257 254 253 251 249 245 240
290 289 288 287 286 285 283 282 282 281 281 280 280 280 280 280 280 280 280 280 280 280 280 279 279 278 277 275 273 270 266 261 256 253 250 252 258 263 266 268 269 271 272 273 273 272 272 273 274 275 277 279 280 282 282 282 283 282 281 282 282 282 282 283 283 283 282 282 282 282 281 279 277 274 271 268 265 262 259 255 253 251 249 246 242 236
291 290 289 288 287 286 285 284 283 282 282 282 281 281 281 281 281 281 281 281 281 280 280 279 278 276 274 271 269 265 260 255 250 247 245 248 254 260 264 266 269 271 272 272 272 271 271 272 272 273 275 277 278 280 280 281 281 281 282 283 284 285 285 285 284 282 280 280 281 280 280 278 275 272 269 266 263 261 258 254 251 249 246 243 239 234
291 291 290 290 288 287 286 285 284 283 283 283 283 283 283 283 283 283 283 283 282 281 280 278 276 274 271 268 264 260 255 251 247 245 245 248 253 259 263 266 268 270 270 270 270 269 270 270 271 271 273 275 276 278 279 280 280 280 282 283 284 285 287 286 284 281 279 278 278 278 277 276 274 271 268 264 261 258 255 252 249 247 244 241 237 231
291 291 291 290 289 288 287 286 285 285 285 285 285 285 285 285 286 285 285 284 283 281 280 277 275 273 270 268 264 260 255 251 248 247 247 249 253 258 262 265 267 268 268 267 266 266 267 268 269 270 271 273 274 275 277 278 279 280 280 282 283 285 286 287 285 281 278 276 274 274 274 274 273 270 267 262 258 254 251 248 246 243 241 238 234 229
292 291 291 290 289 289 288 287 287 287 287 286 286 286 287 287 286 286 285 284 282 280 278 276 274 273 271 269 266 263 259 255 253 251 251 253 256 259 262 264 266 265 264 263 263 263 264 265 267 268 269 270 271 273 275 276 278 278 279 280 281 283 285 287 286 284 279 274 271 270 270 271 270 268 264 260 255 251 247 244 241 238 236 232 229 225
292 292 291 291 290 290 289 289 289 288 288 288 287 287 287 286 285 285 283 282 280 278 276 275 274 273 272 271 269 266 263 260 257 256 255 256 258 260 262 262 262 261 260 259 260 261 262 263 264 266 267 268 269 271 273 275 276 277 277 279 280 282 284 286 286 284 280 274 268 266 266 266 266 265 262 257 252 248 244 240 236 233 229 225 222 219
293 293 293 293 292 292 291 291 290 289 288 287 287 286 285 284 284 283 281 280 279 278 277 276 275 274 273 272 272 271 268 265 262 259 258 258 258 259 259 258 257 257 256 256 257 259 260 262 263 264 265 266 268 270 271 273 274 275 277 278 280 281 283 284 284 282 279 274 268 264 262 262 262 261 259 255 250 246 241 237 233 228 224 219 215 213
296 296 296 296 295 295 294 293 291 290 288 287 286 285 284 283 282 281 280 279 278 278 279 278 277 276 275 274 274 273 272 269 266 263 260 259 258 256 255 253 253 253 254 255 256 258 259 260 261 262 264 265 267 269 271 271 273 274 276 278 279 280 281 282 281 279 276 272 268 263 260 258 257 257 255 252 248 244 239 235 231 226 221 216 212 209
301 301 301 300 299 298 297 295 293 291 289 288 286 285 283 282 281 280 279 279 278 279 279 279 279 278 276 275 274 273 273 271 269 266 263 260 256 254 251 250 250 252 253 255 256 258 259 260 261 261 263 264 266 268 270 271 272 274 276 277 278 279 280 280 278 276 274 270 266 262 259 256 254 253 252 250 246 242 238 234 230 225 221 216 211 208
307 306 305 305 304 302 301 299 297 295 292 290 288 287 285 283 281 280 280 279 279 279 278 278 278 277 276 275 274 274 273 273 271 268 264 259 255 251 248 248 250 252 254 256 257 258 259 260 261 262 263 264 266 268 270 271 273 274 275 276 277 278 278 277 276 274 271 268 264 261 257 255 252 250 249 248 245 242 238 234 230 226 222 217 213 209
312 312 311 310 309 307 305 303 301 298 296 293 291 289 288 286 284 283 282 282 281 280 279 278 277 276 275 274 274 273 273 272 270 267 263 257 252 248 247 248 251 254 256 258 258 258 258 259 261 262 263 265 266 268 270 271 273 274 275 275 276 276 277 276 274 272 269 266 262 259 256 253 250 249 247 246 244 241 238 234 231 227 224 220 216 212